User: anonymous   Login
Location: Sibbertoft
(52.4361°N, 1.0300°W)
Time: 16:36:35
(UTC+01:00)
Language:

Tiangong 2 - Orbit

View from above orbital plane
View from above orbital plane
View from above satellite
View from above satellite

Ground track
Ground track

The orbit data is extracted from the following two-line orbital elements,

1 41765U 16057A   19116.57057692  .00004441  00000-0  55112-4 0  9992
2 41765  42.7816 274.7634 0008989 270.9322 173.5250 15.61339651148977
Epoch (UTC): 26 April 2019 13:41:37
Eccentricity: 0.0008989
inclination: 42.7816°
perigee height: 378 km
apogee height: 390 km
right ascension of ascending node: 274.7634°
argument of perigee: 270.9322°
revolutions per day: 15.61339651
mean anomaly at epoch: 173.5250°
orbit number at epoch: 14897

The dashed part of the orbit path shows where the satellite is in the earth's shadow,  

DLR